Regional Weather Roundup
Issued by NWS Columbia, SC

Home | Current Version | Previous Version | Text Only | Print | Product List | Glossary On
Versions: 1 2 3 4 5 6 7 8 9 10 11 12 13 14 15 16 17 18 19 20 21 22 23 24 25
000
ASUS42 KCAE 190010
RWRCAE
REGIONAL WEATHER ROUNDUP
NATIONAL WEATHER SERVICE COLUMBIA SC
700 PM EST SUN FEB 18 2018

NOTE: "FAIR" INDICATES FEW OR NO CLOUDS BELOW 12,000 FEET WITH NO
SIGNIFICANT WEATHER AND/OR OBSTRUCTIONS TO VISIBILITY.

NOT ALL STATIONS ARE QUALITY CONTROLLED BY THE NATIONAL
WEATHER SERVICE. USE DATA WITH CAUTION...ESPECIALLY
DEWPOINT OBSERVATIONS.

SCZ001>056-GAZ040-063>065-077-190100-
...UPSTATE SOUTH CAROLINA...

CITY           SKY/WX    TMP DP  RH WIND       PRES   REMARKS
ANDERSON       CLOUDY    63  48  58 E7        30.28R
6HR MIN TEMP:  63; 6HR MAX TEMP:  67;

LIBERTY        FAIR      59  46  60 E5        30.29R
6HR MIN TEMP:  59; 6HR MAX TEMP:  66;

SPARTANBURG    MOCLDY    57  41  54 CALM      30.30S
CLEMSON        CLOUDY    61  46  57 NE5       30.29R
6HR MIN TEMP:  60; 6HR MAX TEMP:  65;

GREENVILLE     FAIR      61  45  55 CALM      30.31R
6HR MIN TEMP:  61; 6HR MAX TEMP:  66;

GREENWOOD      CLOUDY    62  49  62 SE6       30.30R
6HR MIN TEMP:  62; 6HR MAX TEMP:  67;

GREER          FAIR      57  45  64 NE5       30.31R
6HR MIN TEMP:  57; 6HR MAX TEMP:  64;

ROCK HILL      FAIR      54  41  61 CALM      30.33R
6HR MIN TEMP:  54; 6HR MAX TEMP:  64;

CHESTER        FAIR      55  41  58 CALM      30.33R
LAURENS        MOCLDY    61  46  59 E5        30.30R


...CENTRAL SOUTH CAROLINA...

CITY           SKY/WX    TMP DP  RH WIND       PRES   REMARKS
COLUMBIA APT   CLOUDY    65  52  62 SE12      30.30R
6HR MIN TEMP:  65; 6HR MAX TEMP:  71;

COLUMBIA OWENS CLOUDY    64  49  57 SE5       30.32R
6HR MIN TEMP:  64; 6HR MAX TEMP:  69;

MCENTIRE ANGB  CLOUDY    63  51  66 SE9       30.32R
6HR MIN TEMP:  63; 6HR MAX TEMP:  69;

ORANGEBURG     CLOUDY    60  47  61 SE7       30.33R
6HR MIN TEMP:  60; 6HR MAX TEMP:  67; 6HR PCP: TRACE;

SUMTER SHAW    CLOUDY    62  52  70 SE12      30.31R
6HR MIN TEMP:  62; 6HR MAX TEMP:  67;

NEWBERRY       CLOUDY    63  48  59 CALM      30.33R
AIKEN          CLOUDY    61  52  72 E7        30.33S
BARNWELL       DRIZZLE   61  59  94 E8        30.31S
MANNING        CLOUDY    59  30  33 MISG      30.34R
CAMDEN         CLOUDY    63  46  55 CALM      30.33R
LANCASTER      FAIR      59  43  55 CALM      30.33R
WINNSBORO      CLOUDY    63  46  55 SE3       30.31R


...EASTERN AND COASTAL SOUTH CAROLINA...

CITY           SKY/WX    TMP DP  RH WIND       PRES   REMARKS
MYRTLE BEACH   CLOUDY    54  49  83 E18G24    30.37R
6HR MIN TEMP:  54; 6HR MAX TEMP:  61; 6HR PCP: TRACE;

N MYRTLE BCH   CLOUDY    55  47  74 E10       30.36R
6HR MIN TEMP:  55; 6HR MAX TEMP:  60; 6HR PCP:  0.01;

CONWAY         CLOUDY    54  46  76 E6        30.36F
MARION         CLOUDY    55  46  71 SE7       30.36R
HARTSVILLE     CLOUDY    61  45  55 SE5       30.32S
FLORENCE       CLOUDY    59  50  72 SE14      30.35R
6HR MIN TEMP:  59; 6HR MAX TEMP:  68;

DARLINGTON     CLOUDY    62  48  60 SE5       30.34R
6HR MIN TEMP:  62; 6HR MAX TEMP:  68;

CHARLESTON APT MOCLDY    60  50  69 E10       30.33R
6HR MIN TEMP:  60; 6HR MAX TEMP:  66;

MOUNT PLEASANT CLOUDY    59  52  77 NE5       30.33R
WALTERBORO     CLOUDY    61  54  77 E6        30.33R
BEAUFORT       CLOUDY    62  57  83 E7        30.31
6HR MIN TEMP:  62; 6HR MAX TEMP:  69;



...EASTERN GEORGIA...

CITY           SKY/WX    TMP DP  RH WIND       PRES   REMARKS
AUGUSTA BUSH F LGT RAIN  61  58  90 SE6       30.29R
6HR MIN TEMP:  61; 6HR MAX TEMP:  70; 6HR PCP: TRACE;

AUGUSTA DANIEL LGT RAIN  63  56  78 SE8       30.30R
6HR MIN TEMP:  63; 6HR MAX TEMP:  68; 6HR PCP: TRACE;

THOMSON        CLOUDY    62  54  75 S7        30.33R
6HR MIN TEMP:  62; 6HR MAX TEMP:  65;

WASHINGTON     MOCLDY    63  52  67 E3        30.28R
CLAXTON        MOCLDY    65  60  84 E10       30.29R
6HR MIN TEMP:  65; 6HR MAX TEMP:  76;

SYLVANIA       CLOUDY    65  62  89 SE7       30.30R
6HR MIN TEMP:  65; 6HR MAX TEMP:  69;

STATESBORO     CLOUDY    65  57  76 SE6       30.30R
6HR MIN TEMP:  65; 6HR MAX TEMP:  70;

SAVANNAH       CLOUDY    62  57  83 E8        30.31R
6HR MIN TEMP:  62; 6HR MAX TEMP:  72;



...SOUTHERN NORTH CAROLINA...

CITY           SKY/WX    TMP DP  RH WIND       PRES   REMARKS
CHARLOTTE      MOCLDY    61  37  41 E6        30.33R
6HR MIN TEMP:  59; 6HR MAX TEMP:  65;

MONROE         FAIR      56  39  53 NE3       30.32R
6HR MIN TEMP:  55; 6HR MAX TEMP:  64;

WADESBORO      FAIR      53  41  63 CALM      30.34R
6HR MIN TEMP:  53; 6HR MAX TEMP:  66;

ROCKINGHAM     CLOUDY    58  41  51 CALM      30.34R
6HR MIN TEMP:  58; 6HR MAX TEMP:  65;

RUTHERFORDTON  FAIR      57  38  50 SE3       30.33R
6HR MIN TEMP:  57; 6HR MAX TEMP:  63;

ASHEVILLE      FAIR      54  38  54 SE6       30.31R
6HR MIN TEMP:  54; 6HR MAX TEMP:  62;


$$




USA.gov is the U.S. government's official web portal to all federal, state and local government web resources and services.